Boonville, MO

1:20 AM CDT on October 23, 2017 (GMT -0500)
Viertel Memorial

Weather History for KVER - May, 2014

Change the Weather History Date:

Wednesday, May 28, 2014

  Actual Average Record
Temperature  
Mean Temperature 74 °F -  
Max Temperature 89 °F 77 °F 91 °F (2012)
Min Temperature 63 °F 57 °F 40 °F (1992)
Cooling Degree Days 9    
Growing Degree Days 24 (Base 50)    
Moisture  
Dew Point 64 °F    
Average Humidity 72    
Maximum Humidity 100    
Minimum Humidity 42    
Precipitation  
Precipitation 0.00 in - - ()
Sea Level Pressure  
Sea Level Pressure 29.94 in    
Wind  
Wind Speed 1 mph (SSE)    
Max Wind Speed 7 mph    
Max Gust Speed -    
Visibility 9 miles    
Events      
Averages and records for this station are not official NWS values.
T = Trace of Precipitation, MM = Missing Value Source: NWS Daily Summary

Daily Weather History Graph

Daily Weather History Graph

Search for Another Location

Airport or City:

Trip Planner

Search our weather history database for the weather conditions in past years. The results will help you decide how hot, cold, wet, or windy it might be!

Date:

Astronomy

May. 28, 2014 Rise Set
Actual Time 5:48 AM CDT 8:27 PM CDT
Civil Twilight 5:17 AM CDT 8:58 PM CDT
Nautical Twilight 4:38 AM CDT 9:37 PM CDT
Astronomical Twilight 3:55 AM CDT 10:21 PM CDT
Moon 5:54 AM CDT (5/28) 8:27 PM CDT (5/28)
Length of Visible Light 15h 40m
Length of Day
14h 38m
Waning Crescent, 0% of the Moon is Illuminated
May 28
Waning Crescent
May 28
New
Jun 5
First Quarter
Jun 12
Full
Jun 19
Last Quarter

Hourly Weather History & Observations

Time (CDT) Temp. Heat Index Dew Point Humidity Pressure Visibility Wind Dir Wind Speed Gust Speed Precip Events Conditions
12:15 AM 69.1 °F - 65.1 °F 87% 29.95 in 10.0 mi Calm Calm - N/A   Clear
12:35 AM 68.4 °F - 66.0 °F 92% 29.95 in 10.0 mi Calm Calm - N/A   Clear
12:55 AM 68.5 °F - 65.8 °F 91% 29.95 in 10.0 mi Calm Calm - N/A   Scattered Clouds
1:15 AM 67.3 °F - 65.5 °F 94% 29.95 in 10.0 mi Calm Calm - N/A   Scattered Clouds
1:35 AM 67.6 °F - 65.8 °F 94% 29.95 in 10.0 mi Calm Calm - N/A   Clear
1:55 AM 66.6 °F - 65.3 °F 96% 29.94 in 10.0 mi Calm Calm - N/A   Clear
2:15 AM 66.2 °F - 65.5 °F 98% 29.94 in 10.0 mi Calm Calm - N/A   Clear
2:35 AM 66.0 °F - 65.1 °F 97% 29.93 in 10.0 mi SE 3.5 mph - N/A   Clear
2:55 AM 65.8 °F - 65.1 °F 98% 29.93 in 10.0 mi Calm Calm - N/A   Clear
3:15 AM 65.7 °F - 64.9 °F 98% 29.93 in 7.0 mi SE 6.9 mph - N/A   Clear
3:35 AM 64.9 °F - 64.4 °F 98% 29.93 in 5.0 mi South 3.5 mph - N/A   Clear
4:15 AM 64.8 °F - 64.6 °F 99% 29.93 in 7.0 mi Calm Calm - N/A   Clear
4:35 AM 64.6 °F - 64.4 °F 99% 29.93 in 7.0 mi South 3.5 mph - N/A   Clear
4:55 AM 64.4 °F - 64.2 °F 99% 29.93 in 5.0 mi Calm Calm - N/A   Clear
5:15 AM 64.4 °F - 64.2 °F 99% 29.93 in 7.0 mi Calm Calm - N/A   Clear
5:35 AM 64.0 °F - 63.9 °F 99% 29.93 in 3.0 mi Calm Calm - N/A   Clear
5:55 AM 63.7 °F - 63.7 °F 100% 29.94 in 2.0 mi Calm Calm - N/A   Clear
6:15 AM 63.7 °F - 63.7 °F 100% 29.94 in 1.8 mi Calm Calm - N/A   Mist
6:35 AM 64.4 °F - 64.4 °F 100% 29.94 in 1.5 mi Calm Calm - N/A   Mist
6:55 AM 64.9 °F - 64.9 °F 100% 29.95 in 7.0 mi SSE 3.5 mph - N/A   Clear
7:15 AM 66.4 °F - 66.4 °F 100% 29.95 in 7.0 mi SSE 5.8 mph - N/A   Clear
7:35 AM 67.5 °F - 66.6 °F 97% 29.96 in 10.0 mi SSE 4.6 mph - N/A   Clear
8:15 AM 70.7 °F - 67.8 °F 91% 29.96 in 10.0 mi Calm Calm - N/A   Clear
8:35 AM 71.6 °F - 68.2 °F 89% 29.98 in 10.0 mi Calm Calm - N/A   Clear
8:55 AM 73.2 °F - 68.5 °F 85% 29.98 in 10.0 mi Calm Calm - N/A   Clear
9:15 AM 74.3 °F - 67.3 °F 79% 29.98 in 10.0 mi Calm Calm - N/A   Clear
9:35 AM 75.4 °F - 66.6 °F 74% 29.98 in 10.0 mi Calm Calm - N/A   Clear
9:55 AM 76.6 °F - 66.0 °F 70% 29.98 in 10.0 mi Calm Calm - N/A   Clear
10:15 AM 77.9 °F - 66.2 °F 67% 29.98 in 10.0 mi Calm Calm - N/A   Clear
10:35 AM 79.3 °F - 64.8 °F 61% 29.98 in 10.0 mi South 3.5 mph - N/A   Clear
11:15 AM 80.8 °F 82.6 °F 65.3 °F 59% 29.98 in 10.0 mi Calm Calm - N/A   Clear
11:35 AM 81.7 °F 83.2 °F 63.9 °F 55% 29.98 in 10.0 mi ESE 5.8 mph - N/A   Scattered Clouds
11:55 AM 82.4 °F 83.4 °F 62.4 °F 51% 29.98 in 10.0 mi ESE 5.8 mph - N/A   Scattered Clouds
12:15 PM 83.3 °F 83.7 °F 61.3 °F 47% 29.97 in 10.0 mi Calm Calm - N/A   Clear
12:35 PM 83.1 °F 84.0 °F 62.8 °F 50% 29.97 in 10.0 mi Calm Calm - N/A   Scattered Clouds
12:55 PM 84.0 °F 84.2 °F 60.3 °F 45% 29.97 in 10.0 mi Calm Calm - N/A   Scattered Clouds
1:15 PM 84.4 °F 84.6 °F 61.0 °F 45% 29.96 in 10.0 mi SSE 3.5 mph - N/A   Clear
1:35 PM 84.2 °F 84.0 °F 59.5 °F 43% 29.96 in 10.0 mi Calm Calm - N/A   Mostly Cloudy
1:55 PM 84.2 °F 84.4 °F 60.4 °F 45% 29.95 in 10.0 mi SSE 5.8 mph - N/A   Scattered Clouds
2:15 PM 84.7 °F 85.0 °F 61.5 °F 45% 29.95 in 10.0 mi ESE 3.5 mph - N/A   Clear
2:35 PM 84.4 °F 84.8 °F 61.3 °F 46% 29.94 in 10.0 mi Calm Calm - N/A   Clear
2:55 PM 84.6 °F 85.4 °F 62.6 °F 48% 29.93 in 7.0 mi Calm Calm - N/A   Scattered Clouds
3:15 PM 84.7 °F 85.4 °F 62.2 °F 47% 29.93 in 7.0 mi South 3.5 mph - N/A   Scattered Clouds
3:35 PM 84.7 °F 85.0 °F 61.2 °F 45% 29.92 in 10.0 mi SSE 4.6 mph - N/A   Scattered Clouds
3:55 PM 85.1 °F 85.9 °F 62.6 °F 47% 29.92 in 10.0 mi SSW 4.6 mph - N/A   Clear
4:15 PM 84.4 °F 85.2 °F 62.8 °F 48% 29.91 in 10.0 mi SSW 3.5 mph - N/A   Scattered Clouds
4:35 PM 84.9 °F 85.2 °F 61.2 °F 45% 29.91 in 7.0 mi Calm Calm - N/A   Scattered Clouds
4:55 PM 85.1 °F 85.4 °F 61.7 °F 45% 29.91 in 4.0 mi SSE 5.8 mph - N/A   Haze
5:15 PM 85.6 °F 85.4 °F 60.4 °F 42% 29.91 in 7.0 mi South 3.5 mph - N/A   Scattered Clouds
5:35 PM 85.3 °F 85.4 °F 61.2 °F 44% 29.91 in 10.0 mi Calm Calm - N/A   Clear
5:55 PM 84.9 °F 85.2 °F 61.3 °F 45% 29.90 in 10.0 mi Calm Calm - N/A   Clear
6:15 PM 84.9 °F 85.4 °F 61.9 °F 46% 29.89 in 10.0 mi SSE 5.8 mph - N/A   Scattered Clouds
6:35 PM 83.3 °F 84.3 °F 62.8 °F 50% 29.89 in 10.0 mi South 3.5 mph - N/A   Clear
6:55 PM 82.2 °F 83.3 °F 63.0 °F 52% 29.89 in 10.0 mi Calm Calm - N/A   Clear
7:15 PM 80.8 °F 82.2 °F 63.7 °F 56% 29.90 in 10.0 mi Calm Calm - N/A   Scattered Clouds
7:35 PM 80.2 °F 81.8 °F 63.9 °F 57% 29.91 in 10.0 mi SW 3.5 mph - N/A   Mostly Cloudy
7:55 PM 79.3 °F - 64.2 °F 60% 29.91 in 10.0 mi WSW 3.5 mph - N/A   Mostly Cloudy
8:15 PM 78.3 °F - 64.0 °F 61% 29.92 in 10.0 mi West 3.5 mph - N/A   Scattered Clouds
8:35 PM 76.8 °F - 64.4 °F 65% 29.91 in 10.0 mi Calm Calm - N/A   Scattered Clouds
8:55 PM 76.1 °F - 64.4 °F 67% 29.92 in 10.0 mi Calm Calm - N/A   Scattered Clouds
9:15 PM 75.4 °F - 65.3 °F 71% 29.92 in 10.0 mi Calm Calm - N/A   Overcast
9:35 PM 75.4 °F - 65.3 °F 71% 29.93 in 10.0 mi SSE 5.8 mph - N/A   Overcast
10:15 PM 73.8 °F - 66.7 °F 79% 29.94 in 10.0 mi Calm Calm - N/A   Overcast
10:55 PM 74.1 °F - 66.6 °F 77% 29.94 in 10.0 mi Calm Calm - N/A   Overcast
11:15 PM 73.6 °F - 66.7 °F 79% 29.94 in 10.0 mi Calm Calm - N/A   Mostly Cloudy
11:35 PM 72.9 °F - 67.1 °F 82% 29.93 in 10.0 mi South 4.6 mph - N/A   Scattered Clouds
11:55 PM 71.8 °F - 67.8 °F 87% 29.93 in 10.0 mi Calm Calm - N/A   Clear